#timestamp,LO_Frequency,Hit,StdDev 
1615276815.3,286046999.8,N
1615276835.1,286047000.0,N
1615276855.8,286046999.7,N
1615276875.7,286046999.9,N
1615276895.5,286047002.4,Y
1615276915.4,286047002.4,P
1615276935.2,286047002.7,N
1615276955.0,286046999.8,N
1615276955.9,286046999.8,N
1615276975.8,286046999.9,N
1615276995.6,286047002.7,N
1615277015.5,286047002.4,N
1615277035.3,286047002.7,N
1615277055.1,286047002.4,N
1615277075.9,286047002.8,N
1615277095.7,286046999.8,N
1615277115.5,286046999.7,N
1615277135.4,286047002.8,N
1615277155.2,286047002.3,N
1615277175.1,286047002.2,N
1615277176.0,286047002.2,N
1615277195.8,286046999.9,N
1615277215.6,286047002.2,N
1615277235.5,286047002.4,N
1615277255.3,286047002.8,N
1615277275.2,286046999.8,N
1615277295.9,286047002.6,N
1615277315.7,286047001.9,N
1615277335.6,286046999.7,N
1615277355.4,286047002.7,N
1615277375.2,286047000.2,N
1615277395.1,286047002.8,N
1615277396.0,286047002.8,N
1615277415.8,286047002.0,N
1615277435.7,286046999.9,N
1615277455.5,286047002.7,N
1615277475.3,286047002.7,N
1615277495.2,286047000.2,N
1615277515.0,286047002.4,N
1615277515.9,286047002.4,N
1615277535.8,286047002.4,N
1615277555.6,286047002.5,N
1615277575.4,286047002.4,N
1615277595.3,286047002.3,N
1615277615.1,286047000.0,N
1615277635.8,286047002.6,N
1615277655.7,286047002.7,N
1615277675.5,286047002.1,N
1615277695.4,286047002.8,N
1615277715.2,286047002.6,N
1615277735.0,286047002.3,N
1615277735.9,286047002.3,N
1615277755.8,286047002.8,N
1615277775.6,286047002.3,N
1615277795.4,286047002.4,N
1615277815.3,286047002.2,N
1615277835.1,286047002.5,N
1615277855.9,286047000.5,N
1615277875.7,286047002.8,N
1615277895.5,286047002.7,N
1615277915.4,286047002.8,Y
1615277935.2,286047000.8,P
1615277955.0,286046999.3,N
1615277956.0,286046999.3,N
1615277975.8,286046998.1,N
1615277995.6,286047001.2,N
1615278015.5,286046998.1,N
1615278035.3,286047000.7,N
1615278055.1,286046998.5,N
1615278075.9,286046998.4,N
1615278095.7,286046999.0,N
1615278115.6,286046998.7,N
1615278135.4,286046998.4,N
1615278155.2,286046998.4,N
1615278175.1,286046998.6,N
1615278176.0,286046998.6,N
1615278195.8,286046999.4,N
1615278215.6,286046998.6,N
1615278235.5,286046998.4,N
1615278255.3,286046998.8,N
1615278275.2,286046998.7,N
1615278295.9,286046998.5,N
1615278315.7,286046999.3,N
1615278335.6,286046998.7,N
1615278355.4,286046998.3,N
1615278375.2,286046998.5,N
1615278395.1,286046998.9,N
1615278396.0,286046998.9,N
1615278415.8,286047000.8,N
1615278435.7,286047000.9,N
1615278455.5,286046998.5,N
1615278475.3,286046998.3,N
1615278495.2,286047000.8,N
1615278515.0,286047000.7,N
1615278515.9,286047000.7,N
1615278535.8,286047001.1,N
1615278555.6,286047001.0,N
1615278575.4,286047001.1,N
1615278595.3,286046998.2,N
1615278615.1,286046998.9,N
1615278635.8,286046998.6,N
1615278655.7,286047001.1,N
1615278675.5,286047001.1,N
1615278695.4,286046998.6,N
1615278715.2,286046998.1,N
1615278735.0,286046998.5,N
1615278735.9,286046998.5,N
1615278755.8,286047001.2,N
1615278775.6,286047001.2,N
1615278795.5,286046998.1,N
1615278815.3,286046998.8,N
1615278835.1,286046998.1,N
1615278855.9,286046998.8,N
1615278875.7,286046998.7,N
1615278895.5,286046998.1,N
1615278915.4,286046998.5,N
1615278935.2,286046998.2,N
1615278955.1,286047001.2,N
1615278956.0,286047001.2,N
1615278975.8,286046998.8,N
1615278995.6,286046998.9,N
1615279015.5,286046998.2,N
1615279035.3,286047000.9,N
1615279055.1,286046998.2,N
1615279075.9,286046998.4,N
1615279095.7,286047000.8,N
1615279115.6,286046998.6,N
1615279135.4,286046998.3,N
1615279155.2,286047001.2,N
1615279175.1,286047000.6,N
1615279176.0,286047000.6,N
1615279195.8,286047000.4,N
1615279215.7,286047000.3,N
1615279235.5,286047001.1,N
1615279255.3,286047000.0,N
1615279275.2,286047001.2,N
1615279295.0,286047000.0,N
1615279295.9,286047000.0,N
1615279315.8,286047000.5,N
1615279335.6,286047000.7,N
1615279355.4,286047000.3,N
1615279375.3,286047000.0,N
1615279395.1,286047000.5,N
1615279415.8,286047000.9,N
1615279435.7,286047001.2,N
1615279455.5,286047001.1,N
1615279475.4,286047000.8,N
1615279495.2,286047001.2,N
1615279515.0,286047000.9,N
1615279515.9,286047000.9,N
1615279535.8,286047000.5,N
1615279555.6,286047000.2,N
1615279575.4,286046999.9,N
1615279595.3,286047000.4,N
1615279615.1,286047000.7,N
1615279635.9,286047000.7,N
1615279655.7,286047000.6,N
1615279675.5,286047000.2,N
1615279695.4,286047000.4,N
1615279715.2,286047000.3,N
1615279735.1,286047000.6,N
1615279736.0,286047000.6,N
1615279755.8,286047000.7,N
1615279775.6,286046999.9,N
1615279795.5,286047000.4,N
1615279815.3,286047000.8,N
1615279835.1,286047000.7,N
1615279855.9,286047001.0,N
1615279875.7,286047000.9,N
1615279895.6,286047000.0,N
1615279915.4,286047001.0,N
1615279935.2,286047000.8,N
1615279955.1,286047001.1,Y
1615279956.0,286047001.1,P
1615279975.8,286046998.2,P
1615279995.7,286046998.2,N
1615280015.5,286046998.4,N
1615280035.3,286046998.4,N
1615280055.2,286046998.4,N
1615280075.9,286046998.7,N
1615280095.7,286047001.2,N
1615280115.6,286046998.2,N
1615280135.4,286046999.4,N
1615280155.3,286046999.0,N
1615280175.1,286046998.6,N
1615280176.0,286046998.6,N
1615280195.8,286046998.7,N
1615280215.7,286046998.9,N
1615280235.5,286046998.2,N
1615280255.3,286046998.4,N
1615280275.2,286047001.1,N
1615280295.0,286046998.5,N
1615280295.9,286046998.5,N
1615280315.8,286046998.4,N
1615280335.6,286046999.4,N
1615280355.4,286046999.0,N
1615280375.3,286046998.8,N
1615280395.1,286046998.7,N
